sat.trackr.live / text

‹ back to catalog

STARLINK-37267

NORAD 68745 · 2026-082T

PAYLOAD ACTIVE UNKNOWN

§ Identity

Operator
Country
US
Launch date
2026-04-15
Launch site
AFWTR
Launch vehicle
Mass (kg)
RCS (m²)

Purposes: comms

External: N2YO · Heavens-Above · Gunter

§ Orbital elements

Epoch: 2026-09-20T01:33:30.153312Z

Period
93.91 min
Inclination
97.2867°
Eccentricity
0.0002451
Mean motion
15.33443951 rev/d
Perigee alt
463.9 km
Apogee alt
467.2 km
Semi-major
6,843.7 km
B*
4.4072e-4
RAAN
125.2936°
Arg perigee
86.0058°
Mean anomaly
274.1465°
Rev number
2,424

§ Raw data

STARLINK-372671 68745U 26082T   26263.06493233  .00014180  00000+0  44072-3 0  99902 68745  97.2867 125.2936 0002451  86.0058 274.1465 15.33443951 24247

JSON: /api/v1/satellites/68745 · /tle

For live sub-satellite position, see the globe view (requires WebGL).

§ Visibility from observer

Set your observer location to see the next 7 days of passes ≥ 10°. The values pass through the URL so the page stays shareable.

No JS? Fill the form by hand. The geolocation button needs JavaScript.